TITAN 3C TRANSTAGE R/B

Satellite information

Favourite Embed

Satellite Type and Status

ROCKET BODYIN ORBIT

Key statistics

Satellite TITAN 3C TRANSTAGE R/B at a glance.

Uptime

16991

Days in orbit

Revolutions

≈ 1.0

Per day

Orbit

OTHER

Other

Inclination

7.3

Latest

Satellite identification and parameters

Extended collection of information and parameters for TITAN 3C TRANSTAGE R/B.

Object identification

Identified? True

Debris? False

Object name: TITAN 3C TRANSTAGE R/B

International designator: 1979-053C

Object number (NORAD): 11436

Object ID (CCSDS): 11436

Country: UNITED STATES OF AMERICA (US)

Current information (Y/N): Y

Orbital parameters

Period: 1448.03 minutes

Inclination: 7.3026 deg

SMA: 42397.986 km

Apoapsis: 36283.949 km

Periapsis: 35755.754 km

RAAN: 296.081 deg

Eccentricy: 0.00622901

Argument of periapsis: 301.6507 deg

Mean anomaly: 57.8237 deg

Mean motion: 0.9944545 rev/day

Mean motion (dot): 0.0000008 rev/day2

B* drag term: 0.0 1/REarth

Two-line elements (TLE)

Creation date: Dec. 16, 2025, 2:19 a.m.

Reference frame: TEME

Reference center: EARTH

Epoch: Dec. 15, 2025, 11:57 a.m. UTC

TLE line 0: 0 TITAN 3C TRANSTAGE R/B

TLE line 1: 1 11436U 79053C 25349.49859514 .00000080 00000-0 00000-0 0 9995

TLE line 2: 2 11436 7.3026 296.0810 0062290 301.6507 57.8237 0.99445450 24718

Live tracking on map

Real-time ground track for satellite TITAN 3C TRANSTAGE R/B.

In-orbit conjunctions

A list of the most updated potential collisions computed for object TITAN 3C TRANSTAGE R/B.

Target Orbit TCA Probability of collision Miss distance Type
COSMOS 2085 OTHER 2025-11-30 02:58:52 TBA 1786.0 (m) PAYLOAD

Associated space launch

American early warning satellite

TITAN 3C TRANSTAGE R/B was lifted into orbit during the mission ‘Titan IIIC | DSP 8’, on board a Titan IIIC space rocket.

The launch took place on June 10, 1979, 1:39 p.m. from Space Launch Complex 40.

For more information about the launch, click the button.

Launch to space Titan IIIC | DSP 8
Titan IIIC | DSP 8

Agency: N/A

Status: Launch Successful

Launch date: June 10, 1979, 1:39 p.m. UTC

Rocket: Titan IIIC

Launch pad: Space Launch Complex 40

Location: Cape Canaveral SFS, FL, USA

...

Latest news about this satellite

There are no fresh news available about this satellite. Check back as we update our databases every day.


Newsletter sign-up

Weekly statistics, charts and insights to help you stay on top of the space industry.